Location: Limerick
(52.6800°N, 8.6400°W)
Time: 03:43:42
(UTC+00:00)

ISS - All Passes

Search period start: 20 February 2018 00:00
Search period end: 02 March 2018 00:00
Orbit: 403 x 407 km, 51.6° (Epoch: 20 February)

Date Brightness Start Highest point End Pass type
(mag) Time Alt. Az. Time Alt. Az. Time Alt. Az.
20 Feb - 10:34:13 10° SW 10:37:16 36° SSE 10:40:19 10° E daylight
20 Feb - 12:10:16 10° W 12:13:33 74° S 12:16:49 10° E daylight
20 Feb - 13:46:43 10° W 13:49:55 55° SSW 13:53:08 10° ESE daylight
20 Feb - 15:23:36 10° W 15:25:57 18° SW 15:28:19 10° SSE daylight
21 Feb - 09:42:24 10° SSW 09:45:12 26° SSE 09:48:00 10° E daylight
21 Feb - 11:18:06 10° WSW 11:21:22 66° S 11:24:37 10° E daylight
21 Feb - 12:54:30 10° W 12:57:46 67° S 13:01:00 10° ESE daylight
21 Feb - 14:31:06 10° W 14:33:56 27° SSW 14:36:44 10° SSE daylight
22 Feb - 08:50:51 10° S 08:53:10 18° SE 08:55:29 10° E daylight
22 Feb - 10:25:58 10° WSW 10:29:11 54° SSE 10:32:24 10° E daylight
22 Feb - 12:02:17 10° W 12:05:33 74° S 12:08:49 10° E daylight
22 Feb - 13:38:47 10° W 13:41:51 37° SSW 13:44:54 10° SE daylight
22 Feb - 15:17:03 10° SW 15:17:38 10° SW 15:18:12 10° SSW daylight
23 Feb - 07:59:54 10° SSE 08:01:11 12° SE 08:02:28 10° ESE daylight
23 Feb - 09:33:55 10° SW 09:37:01 41° SSE 09:40:08 10° E daylight
23 Feb - 11:10:04 10° W 11:13:20 75° S 11:16:37 10° E daylight
23 Feb - 12:46:31 10° W 12:49:42 50° SSW 12:52:53 10° ESE daylight
23 Feb - 14:23:34 10° WSW 14:25:40 16° SW 14:27:46 10° S daylight
24 Feb - 08:42:00 10° SW 08:44:54 29° SSE 08:47:48 10° E daylight
24 Feb - 10:17:51 10° WSW 10:21:06 69° S 10:24:22 10° E daylight
24 Feb - 11:54:15 10° W 11:57:30 63° SSW 12:00:45 10° ESE daylight
24 Feb - 13:30:56 10° W 13:33:37 23° SSW 13:36:18 10° SSE daylight
25 Feb - 07:50:18 10° SSW 07:52:49 21° SSE 07:55:21 10° E daylight
25 Feb - 09:25:39 10° WSW 09:28:53 58° SSE 09:32:07 10° E daylight
25 Feb - 11:02:00 10° W 11:05:16 72° S 11:08:32 10° ESE daylight
25 Feb - 12:38:31 10° W 12:41:31 33° SSW 12:44:30 10° SE daylight
26 Feb - 06:59:00 10° S 07:00:46 14° SE 07:02:33 10° ESE daylight
26 Feb - 08:33:31 10° SW 08:36:41 45° SSE 08:39:50 10° E daylight
26 Feb - 10:09:44 10° W 10:13:01 76° S 10:16:17 10° E daylight
26 Feb - 11:46:11 10° W 11:49:21 45° SSW 11:52:30 10° SE daylight
26 Feb - 13:23:29 10° WSW 13:25:15 14° SW 13:27:02 10° S daylight
27 Feb - 07:41:30 10° SW 07:44:30 33° SSE 07:47:30 10° E daylight
27 Feb - 09:17:28 10° WSW 09:20:44 72° S 09:24:00 10° E daylight
27 Feb - 10:53:54 10° W 10:57:07 58° SSW 11:00:21 10° ESE daylight
27 Feb - 12:30:40 10° W 12:33:12 21° SSW 12:35:42 10° SSE daylight
28 Feb - 06:49:40 10° SSW 06:52:21 23° SSE 06:55:03 10° E visible
28 Feb - 08:25:13 10° WSW 08:28:28 63° S 08:31:44 10° E daylight
28 Feb - 10:01:36 10° W 10:04:52 70° S 10:08:08 10° ESE daylight
28 Feb - 11:38:10 10° W 11:41:04 29° SSW 11:43:58 10° SE daylight
01 Mar - 05:58:09 10° S 06:00:15 16° SE 06:02:22 10° ESE visible
01 Mar - 07:33:01 10° WSW 07:36:13 50° SSE 07:39:25 10° E daylight
01 Mar - 09:09:18 10° W 09:12:34 75° S 09:15:51 10° E daylight
01 Mar - 10:45:46 10° W 10:48:52 41° SSW 10:51:59 10° SE daylight
01 Mar - 12:23:25 10° WSW 12:24:43 12° SW 12:26:01 10° SSW daylight
